Pu Dun — XUUB9 — position and weather

sailwx.info

Track history (hours):
 
Tides and Currents Weather Stations Pressure Air Temp Water Temp Dewpoint Dewpoint Depression Visibility Wind Speed Wind Dir Waves Ship Positions

Pu Dun

Last reported at 2014-Jul-24 00:33 UTC. Time now 2014-Jul-25 01:35 UTC.
Position N 22°30' E 113°51'.

Length 75 m; draft 3.8 m.

Type: Cargo ship. MMSI: 515213000.

Date/timePositionNaut miles runAvg speedWind from/ knotsBaromVisibWave heightAir tempDewpointWater temp
2014-Jul-24 00:33N 22°30' E 113°51'0 0.0
2014-Jul-23 04:26N 22°30' E 113°51'2 2.0
2014-Jul-23 03:22N 22°28' E 113°52'9 9.5
2014-Jul-23 02:25N 22°19' E 113°51'8 9.7
2014-Jul-23 01:33N 22°11' E 113°50'5 0.4
2014-Jul-22 12:27N 22°06' E 113°53'0 0.0
2014-Jul-22 11:33N 22°06' E 113°53'0 0.0
2014-Jul-22 08:27N 22°06' E 113°52'0 0.0
2014-Jul-22 04:09N 22°06' E 113°53'0 0.0
2014-Jul-22 03:33N 22°06' E 113°53'0 0.0
2014-Jul-22 02:33N 22°06' E 113°53'0 0.0
2014-Jul-22 01:27N 22°06' E 113°53'0 0.0
2014-Jul-21 23:33N 22°06' E 113°53'0 0.1
2014-Jul-21 22:33N 22°06' E 113°52'0 0.0
2014-Jul-21 18:33N 22°06' E 113°52'0 0.0
2014-Jul-21 17:27N 22°06' E 113°52'0 0.0
2014-Jul-21 15:21N 22°06' E 113°53'0 0.0
2014-Jul-21 13:09N 22°06' E 113°52'0 0.0
2014-Jul-21 12:15N 22°06' E 113°52'0 0.0
2014-Jul-21 11:33N 22°06' E 113°52'0 0.0
2014-Jul-21 10:15N 22°06' E 113°52'0 0.0
2014-Jul-21 07:15N 22°06' E 113°52'0 0.0
2014-Jul-21 06:27N 22°06' E 113°52'0 0.0
2014-Jul-21 05:21N 22°06' E 113°52'0 0.0
2014-Jul-21 03:21N 22°06' E 113°53'0 0.0
2014-Jul-21 02:33N 22°06' E 113°53'0 0.0
2014-Jul-21 01:21N 22°06' E 113°53'0 0.0
2014-Jul-21 00:27N 22°06' E 113°53'0 0.0
2014-Jul-20 23:33N 22°06' E 113°53'0 0.1
2014-Jul-20 22:33N 22°06' E 113°52'0 0.0
2014-Jul-20 21:09N 22°06' E 113°52'0 0.0
2014-Jul-20 20:23N 22°06' E 113°52'3 4.2
2014-Jul-20 19:33N 22°03' E 113°53'17910.5
2014-Jul-20 02:31N 23°04' E 116°55'4711.2
2014-Jul-19 22:20N 23°33' E 117°35'810.3
2014-Jul-19 21:33N 23°38' E 117°41'1010.3
2014-Jul-19 20:33N 23°45' E 117°49'1010.3
2014-Jul-19 19:33N 23°52' E 117°58'1510.4
2014-Jul-19 18:09N 24°02' E 118°09'1110.4
2014-Jul-19 17:05N 24°10' E 118°18'5010.8
2014-Jul-19 12:27N 24°39' E 119°03'  
Track history (hours):
 
Tides and Currents Weather Stations Pressure Air Temp Water Temp Dewpoint Dewpoint Depression Visibility Wind Speed Wind Dir Waves Ship Positions

Pu Dun

Last reported at 2014-Jul-24 00:33 UTC. Time now 2014-Jul-25 01:35 UTC.
Position N 22°30' E 113°51'.

Length 75 m; draft 3.8 m.

Type: Cargo ship. MMSI: 515213000.

Date/timePositionNaut miles runAvg speedWind from/ knotsBaromVisibWave heightAir tempDewpointWater temp
2014-Jul-24 00:33N 22°30' E 113°51'0 0.0
2014-Jul-23 04:26N 22°30' E 113°51'2 2.0
2014-Jul-23 03:22N 22°28' E 113°52'9 9.5
2014-Jul-23 02:25N 22°19' E 113°51'8 9.7
2014-Jul-23 01:33N 22°11' E 113°50'5 0.4
2014-Jul-22 12:27N 22°06' E 113°53'0 0.0
2014-Jul-22 11:33N 22°06' E 113°53'0 0.0
2014-Jul-22 08:27N 22°06' E 113°52'0 0.0
2014-Jul-22 04:09N 22°06' E 113°53'0 0.0
2014-Jul-22 03:33N 22°06' E 113°53'0 0.0
2014-Jul-22 02:33N 22°06' E 113°53'0 0.0
2014-Jul-22 01:27N 22°06' E 113°53'0 0.0
2014-Jul-21 23:33N 22°06' E 113°53'0 0.1
2014-Jul-21 22:33N 22°06' E 113°52'0 0.0
2014-Jul-21 18:33N 22°06' E 113°52'0 0.0
2014-Jul-21 17:27N 22°06' E 113°52'0 0.0
2014-Jul-21 15:21N 22°06' E 113°53'0 0.0
2014-Jul-21 13:09N 22°06' E 113°52'0 0.0
2014-Jul-21 12:15N 22°06' E 113°52'0 0.0
2014-Jul-21 11:33N 22°06' E 113°52'0 0.0
2014-Jul-21 10:15N 22°06' E 113°52'0 0.0
2014-Jul-21 07:15N 22°06' E 113°52'0 0.0
2014-Jul-21 06:27N 22°06' E 113°52'0 0.0
2014-Jul-21 05:21N 22°06' E 113°52'0 0.0
2014-Jul-21 03:21N 22°06' E 113°53'0 0.0
2014-Jul-21 02:33N 22°06' E 113°53'0 0.0
2014-Jul-21 01:21N 22°06' E 113°53'0 0.0
2014-Jul-21 00:27N 22°06' E 113°53'0 0.0
2014-Jul-20 23:33N 22°06' E 113°53'0 0.1
2014-Jul-20 22:33N 22°06' E 113°52'0 0.0
2014-Jul-20 21:09N 22°06' E 113°52'0 0.0
2014-Jul-20 20:23N 22°06' E 113°52'3 4.2
2014-Jul-20 19:33N 22°03' E 113°53'17910.5
2014-Jul-20 02:31N 23°04' E 116°55'4711.2
2014-Jul-19 22:20N 23°33' E 117°35'810.3
2014-Jul-19 21:33N 23°38' E 117°41'1010.3
2014-Jul-19 20:33N 23°45' E 117°49'1010.3
2014-Jul-19 19:33N 23°52' E 117°58'1510.4
2014-Jul-19 18:09N 24°02' E 118°09'1110.4
2014-Jul-19 17:05N 24°10' E 118°18'5010.8
2014-Jul-19 12:27N 24°39' E 119°03'  

Dump ship's entire track history